EW5546 Weather Reports


time (UTC)temp
C
wind
direction
speed
KPH
gust
KPH
rain 1hr
cm
rain 24hr
cm
rain mn
cm
humidity
%
barometer
mb
20260904215517 18 258 1.6 3.2 0.00 0.20 0.20 73 1003.8
20260904214523 18 203 1.6 3.2 0.00 0.20 0.20 73 1003.9
20260904214042 18 203 0.0 1.6 0.00 0.20 0.20 73 1003.1
20260904213023 18 218 3.2 4.8 0.00 0.20 0.20 73 1002.9
20260904212019 18 302 1.6 4.8 0.00 0.20 0.20 73 1002.9
20260904211104 18 237 3.2 6.4 0.00 0.20 0.20 72 1002.9
20260904210022 18 243 1.6 3.2 0.00 0.20 0.20 72 1002.9
20260904205022 19 248 0.0 3.2 0.00 0.20 0.20 72 1002.9
20260904204022 19 240 1.6 3.2 0.00 0.20 0.20 73 1002.9
20260904203043 19 220 1.6 3.2 0.00 0.20 0.20 72 1002.9
20260904202042 20 232 1.6 3.2 0.20 0.20 0.20 72 1002.9
20260904201117 20 216 3.2 4.8 0.20 0.20 0.20 72 1002.9
20260904200016 20 226 3.2 4.8 0.20 0.20 0.20 71 1002.9
20260904195018 21 268 3.2 4.8 0.20 0.20 0.20 67 1001.9
20260904194022 21 234 3.2 3.2 0.00 0.00 0.00 64 1001.9
20260904193024 21 239 3.2 4.8 0.00 0.00 0.00 60 1001.9
20260904192024 22 202 3.2 4.8 0.00 0.00 0.00 56 1001.9
20260904191024 22 190 6.4 9.7 0.00 0.00 0.00 56 1001.9
20260904190024 22 218 3.2 3.2 0.00 0.00 0.00 55 1001.9
20260904185042 22 232 3.2 4.8 0.00 0.00 0.00 55 1001.9
20260904184021 22 208 3.2 8.0 0.00 0.00 0.00 55 1001.9
20260904183022 21 224 1.6 3.2 0.00 0.00 0.00 55 1001.9
20260904182022 21 206 3.2 6.4 0.00 0.00 0.00 55 1001.9
20260904181022 21 230 3.2 3.2 0.00 0.00 0.00 55 1002.7
20260904180023 21 226 1.6 4.8 0.00 0.00 0.00 55 1002.9
20260904175017 21 212 1.6 3.2 0.00 0.00 0.00 55 1002.9
20260904174026 21 214 1.6 3.2 0.00 0.00 0.00 54 1002.9
20260904173024 21 175 3.2 3.2 0.00 0.00 0.00 54 1002.9
20260904172022 22 219 3.2 4.8 0.00 0.00 0.00 53 1002.9
20260904171016 22 243 1.6 3.2 0.00 0.00 0.00 52 1003.8
20260904170022 22 219 3.2 6.4 0.00 0.00 0.00 52 1003.9
20260904165042 22 233 3.2 4.8 0.00 0.00 0.00 51 1003.9
20260904164022 22 246 4.8 6.4 0.00 0.00 0.00 50 1003.9
20260904163022 22 238 3.2 4.8 0.00 0.00 0.00 50 1003.9
20260904162022 22 229 3.2 6.4 0.00 0.00 0.00 49 1004.9
20260904161024 22 222 3.2 4.8 0.00 0.00 0.00 49 1004.9
20260904160024 22 230 3.2 4.8 0.00 0.00 0.00 49 1004.9
20260904155026 22 174 3.2 4.8 0.00 0.00 0.00 49 1004.9
20260904154022 22 258 1.6 3.2 0.00 0.00 0.00 48 1004.9
20260904153024 22 218 1.6 4.8 0.00 0.00 0.00 48 1004.9
20260904152035 22 200 3.2 4.8 0.00 0.00 0.00 48 1004.9
20260904151102 22 231 1.6 3.2 0.00 0.00 0.00 48 1005.6
20260904145022 22 205 3.2 4.8 0.00 0.00 0.00 48 1005.9
20260904144022 22 193 1.6 3.2 0.00 0.00 0.00 48 1005.9
20260904143039 22 216 3.2 3.2 0.00 0.00 0.00 47 1005.9
20260904142022 22 223 3.2 4.8 0.00 0.00 0.00 47 1005.9
20260904141025 22 219 3.2 6.4 0.00 0.00 0.00 47 1006.6
20260904140022 22 212 3.2 6.4 0.00 0.00 0.00 47 1007.0
20260904135022 22 212 4.8 6.4 0.00 0.00 0.00 47 1007.0
20260904134022 22 214 4.8 6.4 0.00 0.00 0.00 47 1007.0
20260904133015 22 215 4.8 6.4 0.00 0.00 0.00 48 1007.0
20260904132022 22 216 1.6 4.8 0.00 0.00 0.00 47 1008.0
20260904131042 22 224 4.8 4.8 0.00 0.00 0.00 48 1008.0
20260904130017 22 203 3.2 3.2 0.00 0.00 0.00 48 1008.0
20260904125102 22 181 3.2 3.2 0.00 0.00 0.00 48 1008.0
20260904124022 22 241 3.2 4.8 0.00 0.00 0.00 48 1008.0
20260904123022 22 222 3.2 4.8 0.00 0.00 0.00 48 1008.0
20260904122042 22 228 3.2 4.8 0.00 0.00 0.00 48 1008.0
20260904121015 22 228 3.2 3.2 0.00 0.00 0.00 49 1008.0
20260904120018 22 225 1.6 3.2 0.00 0.00 0.00 49 1008.0
20260904115022 22 214 4.8 6.4 0.00 0.00 0.00 49 1009.0
20260904114022 22 199 3.2 3.2 0.00 0.00 0.00 49 1009.0
20260904113018 22 211 3.2 4.8 0.00 0.00 0.00 50 1009.0
20260904112044 22 222 3.2 4.8 0.00 0.00 0.00 49 1009.0
20260904111022 22 230 4.8 6.4 0.00 0.00 0.00 50 1009.0
20260904110026 22 226 3.2 4.8 0.00 0.00 0.00 52 1009.0
20260904105025 22 200 3.2 4.8 0.00 0.00 0.00 53 1010.0
20260904104015 22 232 3.2 4.8 0.00 0.00 0.00 54 1010.0
20260904103022 21 245 1.6 1.6 0.00 0.00 0.00 55 1010.0
20260904102022 21 260 1.6 3.2 0.00 0.00 0.00 57 1010.0
20260904101022 21 230 4.8 9.7 0.00 0.00 0.00 57 1010.0
20260904100021 21 238 1.6 4.8 0.00 0.00 0.00 60 1010.0
20260904095022 21 217 3.2 6.4 0.00 0.00 0.00 60 1010.0
20260904094023 20 245 1.6 3.2 0.00 0.00 0.00 61 1010.0
20260904093023 21 225 3.2 4.8 0.00 0.00 0.00 61 1010.0
20260904092023 20 209 1.6 3.2 0.00 0.00 0.00 62 1010.0
20260904091020 20 312 3.2 9.7 0.00 0.00 0.00 63 1010.0
20260904090022 20 218 3.2 4.8 0.00 0.00 0.00 63 1010.0
20260904085015 20 228 3.2 3.2 0.00 0.00 0.00 64 1010.0
20260904084022 20 220 1.6 1.6 0.00 0.00 0.00 65 1010.0
20260904083022 20 220 3.2 4.8 0.00 0.00 0.00 66 1010.0
20260904082025 20 226 1.6 3.2 0.00 0.00 0.00 67 1010.0
20260904081022 20 210 1.6 3.2 0.00 0.00 0.00 67 1010.0
20260904080024 19 209 1.6 1.6 0.00 0.00 0.00 67 1010.0
20260904075022 19 239 1.6 3.2 0.00 0.00 0.00 67 1010.0
20260904074016 19 255 3.2 4.8 0.00 0.00 0.00 68 1010.0
20260904073022 19 219 1.6 1.6 0.00 0.00 0.00 68 1010.0
20260904072022 19 222 1.6 4.8 0.00 0.00 0.00 68 1010.0
20260904071102 19 208 1.6 3.2 0.00 0.00 0.00 69 1010.0
20260904070047 18 223 3.2 4.8 0.00 0.00 0.00 69 1010.0
20260904065023 18 217 1.6 3.2 0.00 0.00 0.00 70 1010.0
20260904064022 18 208 1.6 3.2 0.00 0.00 0.00 70 1010.0
20260904063022 18 222 1.6 4.8 0.00 0.00 0.00 71 1010.0
20260904062022 18 219 1.6 1.6 0.00 0.00 0.00 71 1010.0
20260904061022 17 228 3.2 4.8 0.00 0.00 0.00 72 1010.0
20260904060024 17 234 1.6 3.2 0.00 0.00 0.00 72 1010.0
20260904055029 17 221 3.2 4.8 0.00 0.00 0.00 71 1010.0
20260904054024 17 218 3.2 4.8 0.00 0.00 0.00 71 1010.0
20260904053025 17 206 3.2 4.8 0.00 0.00 0.00 70 1010.0
20260904052025 17 230 1.6 3.2 0.00 0.00 0.00 70 1010.0
20260904051017 17 221 3.2 4.8 0.00 0.00 0.00 68 1010.0
20260904050022 17 214 1.6 1.6 0.00 0.00 0.00 68 1010.0
20260904045022 17 203 1.6 3.2 0.00 0.00 0.00 67 1010.0
20260904044015 17 217 3.2 3.2 0.00 0.00 0.00 68 1010.0
20260904043024 17 211 3.2 3.2 0.00 0.00 0.00 67 1010.0
20260904042022 17 224 1.6 3.2 0.00 0.00 0.00 67 1011.0
20260904041026 17 207 1.6 3.2 0.00 0.00 0.00 66 1011.0
20260904040020 17 203 1.6 3.2 0.00 0.00 0.00 66 1011.0
20260904035023 17 207 1.6 4.8 0.00 0.00 0.00 65 1010.0
20260904034016 17 202 1.6 3.2 0.00 0.00 0.00 65 1010.7
20260904033023 17 238 1.6 3.2 0.00 0.00 0.00 64 1011.0
20260904032022 17 227 1.6 3.2 0.00 0.00 0.00 64 1011.0
20260904031023 17 218 1.6 1.6 0.00 0.00 0.00 63 1011.0
20260904030022 17 210 1.6 1.6 0.00 0.00 0.00 62 1011.0
20260904025022 17 203 0.0 1.6 0.00 0.00 0.00 62 1011.0
20260904024018 17 214 1.6 1.6 0.00 0.00 0.00 62 1011.0
20260904023046 17 203 1.6 3.2 0.00 0.00 0.00 62 1011.0
20260904022042 17 225 0.0 1.6 0.00 0.00 0.00 61 1011.0
20260904021022 17 203 1.6 1.6 0.00 0.00 0.00 61 1011.0
20260904020023 17 230 1.6 1.6 0.00 0.00 0.00 62 1011.0
20260904015022 17 191 1.6 3.2 0.00 0.00 0.00 62 1011.0
20260904014022 17 225 1.6 3.2 0.00 0.00 0.00 62 1011.0
20260904013016 17 225 1.6 1.6 0.00 0.00 0.00 62 1011.0
20260904012022 17 231 0.0 1.6 0.00 0.00 0.00 63 1011.0
20260904011042 17 214 1.6 1.6 0.00 0.00 0.00 63 1011.0
20260904010050 17 203 0.0 1.6 0.00 0.00 0.00 63 1011.0
20260904005016 17 203 1.6 3.2 0.00 0.00 0.00 62 1011.0
20260904004022 17 248 0.0 1.6 0.00 0.00 0.00 63 1011.0
20260904003016 18 0.0 0.0 0.00 0.00 0.00 63 1011.0
20260904002024 18 231 1.6 1.6 0.00 0.00 0.00 63 1012.0
20260904001022 18 230 1.6 3.2 0.00 0.00 0.00 64 1012.0
20260904000023 18 203 0.0 1.6 0.00 0.00 0.00 63 1012.0
20260903235024 18 248 1.6 3.2 0.00 0.00 0.00 63 1012.0
20260903234025 18 0.0 0.0 0.00 0.00 0.00 63 1012.0
20260903233023 18 0.0 0.0 0.00 0.00 0.00 61 1012.0
20260903232022 18 203 0.0 3.2 0.00 0.00 0.00 59 1012.0
20260903231042 18 203 1.6 1.6 0.00 0.00 0.00 58 1012.9
20260903230044 18 0.0 0.0 0.00 0.00 0.00 57 1013.0
20260903225022 19 214 0.0 1.6 0.00 0.00 0.00 52 1012.0
20260903224025 19 234 1.6 1.6 0.00 0.00 0.00 52 1012.0
20260903223021 19 0.0 0.0 0.00 0.00 0.00 52 1012.0
20260903222022 19 203 0.0 1.6 0.00 0.00 0.00 52 1012.0
20260903221024 19 203 0.0 1.6 0.00 0.00 0.00 51 1012.7